EW8126 Weather Reports


Display with metric or nautical units.
time (UTC)temp
F
wind
direction
speed
MPH
gust
MPH
rain 1hr
in
rain 24hr
in
rain mn
in
humidity
%
barometer
mb
20191018130140 38 217 0.0 1.0 0.01 0.01 0.01 97 1016.3
20191018124657 36 221 0.0 0.0 0.01 0.01 0.01 97 1016.4
20191018123136 35 221 0.0 0.0 0.00 0.00 0.00 97 1016.4
20191018121630 33 221 0.0 0.0 0.00 0.00 0.00 96 1016.4
20191018120134 32 221 0.0 0.0 0.00 0.00 0.00 96 1016.2
20191018114656 32 221 0.0 0.0 0.00 0.00 0.00 96 1016.2
20191018113129 33 221 0.0 0.0 0.00 0.00 0.00 96 1016.2
20191018111557 33 221 0.0 0.0 0.00 0.00 0.00 96 1016.0
20191018110142 33 221 0.0 0.0 0.00 0.00 0.00 96 1016.2
20191018104551 33 221 0.0 0.0 0.00 0.00 0.00 96 1016.2
20191018103114 34 221 0.0 0.0 0.00 0.00 0.00 96 1016.2
20191018101604 34 221 0.0 0.0 0.00 0.00 0.00 96 1016.1
20191018100139 34 221 0.0 0.0 0.00 0.00 0.00 96 1015.8
20191018094552 34 221 0.0 0.0 0.00 0.00 0.00 96 1015.7
20191018093103 34 221 0.0 1.0 0.00 0.00 0.00 96 1015.5
20191018091532 35 221 0.0 0.0 0.00 0.00 0.00 96 1015.5
20191018090025 35 221 0.0 1.0 0.00 0.00 0.00 96 1015.6
20191018084528 35 221 0.0 0.0 0.00 0.00 0.00 96 1015.6
20191018083027 35 221 0.0 0.0 0.00 0.00 0.00 95 1015.4
20191018081528 35 221 0.0 0.0 0.00 0.00 0.00 96 1015.3
20191018080150 35 221 0.0 0.0 0.00 0.00 0.00 95 1015.2
20191018074551 36 355 0.0 1.0 0.00 0.00 0.00 96 1015.4
20191018073019 35 355 0.0 0.0 0.00 0.00 0.00 96 1015.4
20191018071519 35 355 0.0 0.0 0.00 0.00 0.00 95 1015.2
20191018070034 35 355 0.0 0.0 0.00 0.00 0.00 95 1015.3
20191018064552 35 355 0.0 0.0 0.00 0.00 0.00 95 1015.4
20191018063018 35 355 0.0 0.0 0.00 0.00 0.00 95 1015.3
20191018061514 36 355 0.0 0.0 0.00 0.00 0.00 95 1015.3
20191018060015 36 355 0.0 0.0 0.00 0.00 0.00 95 1015.4
20191018054531 36 355 0.0 0.0 0.00 0.00 0.00 95 1015.2
20191018053008 36 355 0.0 0.0 0.00 0.00 0.00 95 1015.3
20191018051532 37 355 0.0 0.0 0.00 0.00 0.00 95 1015.3
20191018050008 37 355 0.0 0.0 0.00 0.00 0.00 95 1015.2
20191018044503 37 355 0.0 0.0 0.00 0.00 0.00 95 1015.2
20191018043207 37 355 0.0 0.0 0.00 0.00 0.00 94 1015.3
20191018041649 38 355 0.0 0.0 0.00 0.00 0.00 94 1015.5
20191018040153 38 355 0.0 0.0 0.00 0.00 0.00 94 1015.6
20191018034712 38 355 0.0 0.0 0.00 0.00 0.00 94 1015.7
20191018033159 39 355 0.0 0.0 0.00 0.00 0.00 94 1015.5
20191018031633 39 355 0.0 0.0 0.00 0.00 0.00 94 1015.5
20191018030217 40 355 0.0 0.0 0.00 0.00 0.00 93 1015.5
20191018024643 40 355 0.0 0.0 0.00 0.00 0.00 94 1015.5
20191018023159 40 355 0.0 0.0 0.00 0.00 0.00 93 1015.2
20191018021700 40 355 0.0 0.0 0.00 0.00 0.00 92 1015.0
20191018020123 41 355 0.0 0.0 0.00 0.00 0.00 91 1014.9
20191018014606 41 355 0.0 0.0 0.00 0.00 0.00 91 1014.9
20191018013118 42 355 0.0 0.0 0.00 0.00 0.00 90 1015.0
20191018011635 42 355 0.0 0.0 0.00 0.00 0.00 89 1014.8
20191018010241 43 355 0.0 0.0 0.00 0.00 0.00 88 1014.8
20191018004605 43 355 0.0 0.0 0.00 0.00 0.00 87 1014.8
20191018003128 44 355 0.0 0.0 0.00 0.00 0.00 86 1014.9
20191018001718 45 355 0.0 0.0 0.00 0.00 0.00 85 1014.9
20191018000158 46 355 0.0 0.0 0.00 0.00 0.00 83 1014.9
20191017234615 47 355 0.0 0.0 0.00 0.00 0.00 79 1014.8
20191017233112 48 355 0.0 0.0 0.00 0.00 0.00 76 1014.5
20191017231702 49 355 0.0 0.0 0.00 0.00 0.00 75 1014.1
20191017230113 50 355 0.0 0.0 0.00 0.00 0.00 70 1013.9
20191017224612 51 355 0.0 0.0 0.00 0.00 0.00 68 1013.7
20191017223113 52 355 0.0 0.0 0.00 0.00 0.00 65 1013.6
20191017221640 53 355 0.0 0.0 0.00 0.00 0.00 64 1013.4
20191017220117 54 19 0.0 2.0 0.00 0.00 0.00 59 1013.5
20191017214613 55 27 0.0 4.0 0.00 0.00 0.00 55 1013.5
20191017213144 57 261 0.0 4.0 0.00 0.00 0.00 53 1013.5
20191017211604 58 277 0.0 6.0 0.00 0.00 0.00 51 1013.5
20191017210111 58 19 1.0 6.0 0.00 0.00 0.00 51 1013.7
20191017204640 58 132 0.0 8.0 0.00 0.00 0.00 51 1013.7
20191017203225 58 339 1.0 4.0 0.00 0.00 0.00 52 1013.9
20191017201653 58 288 1.0 4.0 0.00 0.00 0.00 51 1013.9
20191017200055 57 44 0.0 6.0 0.00 0.00 0.00 53 1013.9
20191017194622 57 79 3.0 6.0 0.00 0.00 0.00 49 1013.8
20191017193048 58 127 1.0 6.0 0.00 0.00 0.00 50 1014.1
20191017191623 57 242 0.0 6.0 0.00 0.00 0.00 53 1014.3
20191017190034 57 271 1.0 6.0 0.00 0.00 0.00 52 1014.4
20191017184625 56 15 1.0 9.0 0.00 0.00 0.00 53 1014.6
20191017183117 56 355 3.0 10.0 0.00 0.00 0.00 54 1014.7
20191017181608 56 68 0.0 10.0 0.00 0.00 0.00 54 1014.7
20191017180100 56 209 1.0 14.0 0.00 0.00 0.00 55 1014.6
20191017174542 56 9 0.0 6.0 0.00 0.00 0.00 55 1015.0
20191017173035 56 11 2.0 8.0 0.00 0.00 0.00 58 1015.2
20191017171601 54 21 3.0 11.0 0.00 0.00 0.00 58 1015.2
20191017170126 54 344 2.0 8.0 0.00 0.00 0.00 56 1015.4
20191017164538 53 43 5.0 12.0 0.00 0.00 0.00 57 1015.5
20191017163046 53 244 3.0 8.0 0.00 0.00 0.00 59 1015.7
20191017161559 52 49 3.0 9.0 0.00 0.00 0.00 66 1015.8
20191017160027 51 9 2.0 8.0 0.00 0.00 0.00 69 1015.9
20191017154526 52 73 1.0 8.0 0.00 0.00 0.00 67 1016.0
20191017153013 50 63 1.0 8.0 0.00 0.00 0.00 69 1016.2
20191017151532 50 35 2.0 9.0 0.00 0.00 0.00 70 1016.2
20191017150003 49 22 2.0 6.0 0.00 0.00 0.00 73 1016.2
20191017143210 48 32 3.0 10.0 0.00 0.00 0.00 77 1016.1
20191017141657 47 350 2.0 6.0 0.00 0.00 0.00 82 1016.1
20191017140121 45 225 0.0 1.0 0.00 0.00 0.00 90 1016.1
20191017134623 42 212 0.0 2.0 0.00 0.00 0.00 93 1016.2
20191017131638 40 246 0.0 0.0 0.00 0.00 0.00 97 1015.9